timestamp,wind_dir_avg,wind_spd_avg,wind_spd_max_dir,wind_spd_gust,battery_voltage,lat,long
2021-06-25 00:04:01+00:00,172.0,0.67,170.0,2.41,13.29,47.59359,-54.27349
2021-06-25 00:14:01+00:00,214.0,2.98,225.0,3.7,12.81,47.59359,-54.27349
2021-06-25 00:24:01+00:00,209.0,2.12,201.0,2.6,12.81,47.59359,-54.27349
2021-06-25 00:34:01+00:00,127.0,3.45,130.0,4.08,12.81,47.59359,-54.27349
2021-06-25 00:44:01+00:00,140.0,2.07,145.0,2.78,12.81,47.59359,-54.27349
2021-06-25 00:54:01+00:00,187.0,0.97,189.0,1.31,12.81,47.59359,-54.27349
2021-06-25 01:04:01+00:00,263.0,0.61,301.0,1.17,12.81,47.59359,-54.27349
2021-06-25 01:14:01+00:00,127.0,2.88,121.0,3.56,12.65,47.59359,-54.27349
2021-06-25 01:24:01+00:00,119.0,1.41,129.0,2.07,12.65,47.59359,-54.27349
2021-06-25 01:34:01+00:00,178.0,0.88,149.0,1.4,12.65,47.59359,-54.27349
2021-06-25 01:44:01+00:00,29.0,1.33,41.0,3.21,12.65,47.59359,-54.27349
2021-06-25 01:54:01+00:00,83.0,1.83,81.0,2.15,12.65,47.59359,-54.27349
2021-06-25 02:04:01+00:00,71.0,1.31,79.0,1.6,12.65,47.59359,-54.27349
2021-06-25 02:14:01+00:00,68.0,1.59,62.0,1.96,12.65,47.59359,-54.27349
2021-06-25 02:24:01+00:00,54.0,2.63,57.0,3.08,12.65,47.59359,-54.27349
2021-06-25 02:34:01+00:00,33.0,2.12,27.0,2.35,12.65,47.59359,-54.27349
2021-06-25 02:44:01+00:00,119.0,0.26,117.0,0.57,12.65,47.59359,-54.27349
2021-06-25 02:54:01+00:00,89.0,1.88,89.0,2.93,12.65,47.59359,-54.27349
2021-06-25 03:04:01+00:00,48.0,1.8,49.0,2.1,12.65,47.59359,-54.27349
2021-06-25 03:14:01+00:00,3.0,1.86,4.0,2.05,12.57,47.59359,-54.27349
2021-06-25 03:24:01+00:00,357.0,2.09,359.0,2.33,12.57,47.59359,-54.27349
2021-06-25 03:34:01+00:00,354.0,1.85,350.0,2.37,12.57,47.59359,-54.27349
2021-06-25 03:44:01+00:00,351.0,2.25,350.0,2.9,12.57,47.59359,-54.27349
2021-06-25 03:54:01+00:00,346.0,2.86,347.0,3.18,12.57,47.59359,-54.27349
2021-06-25 04:04:01+00:00,334.0,2.26,330.0,2.58,12.57,47.59359,-54.27349
2021-06-25 04:14:00+00:00,347.0,3.29,351.0,3.58,12.57,47.59359,-54.27349
2021-06-25 04:24:00+00:00,3.0,2.93,3.0,3.51,12.57,47.59359,-54.27349
2021-06-25 04:34:00+00:00,353.0,2.35,349.0,3.2,12.57,47.59359,-54.27349
2021-06-25 04:44:00+00:00,2.0,2.79,358.0,3.07,12.57,47.59359,-54.27349
2021-06-25 04:54:00+00:00,2.0,3.32,1.0,3.62,12.57,47.59359,-54.27349
2021-06-25 05:04:00+00:00,355.0,3.29,357.0,3.72,12.57,47.59359,-54.27349
2021-06-25 05:14:00+00:00,344.0,3.76,344.0,4.04,12.57,47.59359,-54.27349
2021-06-25 05:24:00+00:00,343.0,2.65,346.0,3.14,12.57,47.59359,-54.27349
2021-06-25 05:34:00+00:00,340.0,0.91,334.0,1.15,12.57,47.59359,-54.27349
2021-06-25 05:44:00+00:00,294.0,0.62,304.0,0.88,12.57,47.59359,-54.27349
2021-06-25 05:54:00+00:00,347.0,0.37,355.0,0.75,12.57,47.59359,-54.27349
2021-06-25 06:04:00+00:00,183.0,0.75,190.0,0.83,12.57,47.59359,-54.27349
2021-06-25 06:14:00+00:00,172.0,0.55,168.0,0.63,12.57,47.59359,-54.27349
2021-06-25 06:24:00+00:00,234.0,0.74,230.0,0.98,12.57,47.59359,-54.27349
2021-06-25 06:34:00+00:00,176.0,0.99,175.0,1.13,12.57,47.59359,-54.27349
2021-06-25 06:44:00+00:00,175.0,1.56,175.0,1.84,12.57,47.59359,-54.27349
2021-06-25 06:54:00+00:00,175.0,2.34,172.0,2.64,12.57,47.59359,-54.27349
2021-06-25 07:04:00+00:00,207.0,2.33,208.0,2.84,12.57,47.59359,-54.27349
2021-06-25 07:14:00+00:00,197.0,2.9,206.0,3.32,12.49,47.59359,-54.27349
2021-06-25 07:24:00+00:00,242.0,2.74,242.0,2.9,12.49,47.59359,-54.27349
2021-06-25 07:34:00+00:00,237.0,2.75,236.0,2.91,12.49,47.59359,-54.27349
2021-06-25 07:44:00+00:00,232.0,2.61,232.0,2.8,12.49,47.59359,-54.27349
2021-06-25 07:54:00+00:00,234.0,2.69,237.0,2.96,12.49,47.59359,-54.27349
2021-06-25 08:04:00+00:00,247.0,2.31,253.0,2.75,12.49,47.59359,-54.27349
2021-06-25 08:14:01+00:00,284.0,1.87,284.0,2.13,12.57,47.59359,-54.27349
2021-06-25 08:24:01+00:00,232.0,1.95,232.0,2.24,12.57,47.59359,-54.27349
2021-06-25 08:34:01+00:00,232.0,1.88,232.0,2.01,12.57,47.59359,-54.27349
2021-06-25 08:44:01+00:00,231.0,1.77,225.0,1.97,12.57,47.59359,-54.27349
2021-06-25 08:54:01+00:00,206.0,1.39,209.0,1.59,12.57,47.59359,-54.27349
2021-06-25 09:04:01+00:00,226.0,1.74,224.0,1.99,12.57,47.59359,-54.27349
2021-06-25 09:14:01+00:00,228.0,1.17,227.0,1.37,13.13,47.59359,-54.27349
2021-06-25 09:24:01+00:00,209.0,1.36,205.0,1.75,13.13,47.59359,-54.27349
2021-06-25 09:34:01+00:00,193.0,2.17,191.0,2.41,13.13,47.59359,-54.27349
2021-06-25 09:44:01+00:00,205.0,2.42,207.0,2.66,13.13,47.59359,-54.27349
2021-06-25 09:54:01+00:00,205.0,2.43,207.0,2.59,13.13,47.59359,-54.27349
2021-06-25 10:04:01+00:00,194.0,2.24,195.0,2.47,13.13,47.59359,-54.27349
2021-06-25 10:14:01+00:00,212.0,2.73,214.0,2.93,13.44,47.59359,-54.27349
2021-06-25 10:24:01+00:00,210.0,2.74,213.0,3.04,13.44,47.59359,-54.27349
2021-06-25 10:34:01+00:00,205.0,3.19,215.0,3.58,13.44,47.59359,-54.27349
2021-06-25 10:44:01+00:00,205.0,3.0,213.0,3.33,13.44,47.59359,-54.27349
2021-06-25 10:54:01+00:00,187.0,3.26,173.0,3.7,13.44,47.59359,-54.27349
2021-06-25 11:04:01+00:00,198.0,3.28,213.0,3.77,13.44,47.59359,-54.27349
2021-06-25 11:14:01+00:00,217.0,4.29,217.0,4.45,13.76,47.59359,-54.27349
2021-06-25 11:24:01+00:00,211.0,2.51,221.0,2.98,13.76,47.59359,-54.27349
2021-06-25 11:34:01+00:00,220.0,3.84,219.0,4.1,13.76,47.59359,-54.27349
2021-06-25 11:44:01+00:00,222.0,3.54,224.0,3.83,13.76,47.59359,-54.27349
2021-06-25 11:54:01+00:00,223.0,3.38,223.0,3.73,13.76,47.59359,-54.27349
2021-06-25 12:04:01+00:00,232.0,3.12,233.0,3.29,13.76,47.59359,-54.27349
2021-06-25 12:14:01+00:00,204.0,3.23,207.0,3.41,13.84,47.59359,-54.27349
2021-06-25 12:24:01+00:00,214.0,3.36,215.0,3.78,13.84,47.59359,-54.27349
2021-06-25 12:34:01+00:00,221.0,3.67,218.0,4.12,13.84,47.59359,-54.27349
2021-06-25 12:44:01+00:00,220.0,4.42,220.0,4.82,13.84,47.59359,-54.27349
2021-06-25 12:54:01+00:00,203.0,5.33,210.0,5.87,13.84,47.59359,-54.27349
2021-06-25 13:04:01+00:00,210.0,6.07,213.0,6.77,13.84,47.59359,-54.27349
2021-06-25 13:14:01+00:00,208.0,6.73,203.0,7.64,14.16,47.59359,-54.27349
2021-06-25 13:24:01+00:00,210.0,6.73,212.0,7.41,14.16,47.59359,-54.27349
2021-06-25 13:34:01+00:00,205.0,6.76,205.0,7.35,14.16,47.59359,-54.27349
2021-06-25 13:44:01+00:00,210.0,6.35,211.0,7.0,14.16,47.59359,-54.27349
2021-06-25 13:54:01+00:00,184.0,5.48,202.0,6.47,14.16,47.59359,-54.27349
2021-06-25 14:04:01+00:00,212.0,6.78,213.0,7.07,14.16,47.59359,-54.27349
2021-06-25 14:14:01+00:00,210.0,7.35,208.0,8.0,14.32,47.59359,-54.27349
2021-06-25 14:24:01+00:00,211.0,6.49,212.0,7.18,14.32,47.59359,-54.27349
2021-06-25 14:34:01+00:00,207.0,6.73,203.0,8.03,14.32,47.59359,-54.27349
2021-06-25 14:44:01+00:00,179.0,4.84,158.0,5.52,14.32,47.59359,-54.27349
2021-06-25 14:54:01+00:00,183.0,5.25,200.0,5.77,14.32,47.59359,-54.27349
2021-06-25 15:04:01+00:00,183.0,6.14,198.0,6.76,14.32,47.59359,-54.27349
2021-06-25 15:14:01+00:00,196.0,5.93,197.0,6.3,14.24,47.59359,-54.27349
2021-06-25 15:24:01+00:00,201.0,6.37,205.0,6.83,14.24,47.59359,-54.27349
2021-06-25 15:34:01+00:00,198.0,7.53,195.0,10.53,14.24,47.59359,-54.27349
2021-06-25 15:44:01+00:00,197.0,8.04,200.0,8.7,14.24,47.59359,-54.27349
2021-06-25 15:54:01+00:00,187.0,7.93,198.0,8.86,14.24,47.59359,-54.27349
2021-06-25 16:04:01+00:00,192.0,8.54,190.0,9.56,14.24,47.59359,-54.27349
2021-06-25 16:14:01+00:00,183.0,7.94,200.0,9.1,14.32,47.59359,-54.27349
2021-06-25 16:24:01+00:00,195.0,8.46,201.0,9.33,14.32,47.59359,-54.27349
2021-06-25 16:34:01+00:00,197.0,8.32,198.0,9.01,14.32,47.59359,-54.27349
2021-06-25 16:44:01+00:00,198.0,7.95,201.0,8.68,14.32,47.59359,-54.27349
2021-06-25 16:54:01+00:00,204.0,8.33,202.0,9.39,14.32,47.59359,-54.27349
2021-06-25 17:04:01+00:00,210.0,8.79,218.0,10.11,14.32,47.59359,-54.27349
2021-06-25 17:14:01+00:00,208.0,8.01,208.0,8.74,14.0,47.59359,-54.27349
2021-06-25 17:24:01+00:00,209.0,8.64,207.0,10.22,14.0,47.59359,-54.27349
2021-06-25 17:34:01+00:00,209.0,8.55,212.0,9.13,14.0,47.59359,-54.27349
2021-06-25 17:44:01+00:00,204.0,7.86,206.0,8.63,14.0,47.59359,-54.27349
2021-06-25 17:54:01+00:00,207.0,7.95,208.0,8.7,14.0,47.59359,-54.27349
2021-06-25 18:04:01+00:00,203.0,6.84,206.0,7.89,14.0,47.59359,-54.27349
2021-06-25 18:14:01+00:00,208.0,7.62,207.0,8.42,13.84,47.59359,-54.27349
2021-06-25 18:24:01+00:00,206.0,8.17,209.0,9.15,13.84,47.59359,-54.27349
2021-06-25 18:34:01+00:00,209.0,9.19,206.0,10.86,13.84,47.59359,-54.27349
2021-06-25 18:44:01+00:00,210.0,9.02,208.0,9.94,13.84,47.59359,-54.27349
2021-06-25 18:54:01+00:00,211.0,10.12,214.0,11.25,13.84,47.59359,-54.27349
2021-06-25 19:04:01+00:00,214.0,10.09,213.0,11.47,13.84,47.59359,-54.27349
2021-06-25 19:14:01+00:00,214.0,9.11,213.0,10.67,13.84,47.59359,-54.27349
2021-06-25 19:24:01+00:00,211.0,9.51,209.0,10.53,13.84,47.59359,-54.27349
2021-06-25 19:34:01+00:00,206.0,7.88,203.0,9.41,13.84,47.59359,-54.27349
2021-06-25 19:44:01+00:00,209.0,8.01,211.0,9.22,13.84,47.59359,-54.27349
2021-06-25 19:54:01+00:00,209.0,8.86,212.0,10.11,13.84,47.59359,-54.27349
2021-06-25 20:04:01+00:00,209.0,8.93,210.0,9.91,13.84,47.59359,-54.27349
2021-06-25 20:14:01+00:00,212.0,8.53,218.0,9.38,13.84,47.59359,-54.27349
2021-06-25 20:24:01+00:00,236.0,4.46,231.0,6.36,13.84,47.59359,-54.27349
2021-06-25 20:34:01+00:00,214.0,7.75,214.0,8.93,13.84,47.59359,-54.27349
2021-06-25 20:44:01+00:00,213.0,7.76,214.0,8.28,13.84,47.59359,-54.27349
2021-06-25 20:54:01+00:00,212.0,7.86,212.0,8.36,13.84,47.59359,-54.27349
2021-06-25 21:04:01+00:00,214.0,7.16,207.0,8.69,13.84,47.59359,-54.27349
2021-06-25 21:14:01+00:00,214.0,6.41,213.0,7.19,13.76,47.59359,-54.27349
2021-06-25 21:24:01+00:00,212.0,6.4,214.0,6.97,13.76,47.59359,-54.27349
2021-06-25 21:34:01+00:00,210.0,5.77,209.0,6.4,13.76,47.59359,-54.27349
2021-06-25 21:44:01+00:00,209.0,6.92,204.0,8.86,13.76,47.59359,-54.27349
2021-06-25 21:54:01+00:00,212.0,6.46,212.0,6.82,13.76,47.59359,-54.27349
2021-06-25 22:04:01+00:00,214.0,5.63,208.0,7.52,13.76,47.59359,-54.27349
2021-06-25 22:14:01+00:00,213.0,5.89,212.0,6.63,13.6,47.59359,-54.27349
2021-06-25 22:24:01+00:00,219.0,5.94,226.0,6.61,13.6,47.59359,-54.27349
2021-06-25 22:34:01+00:00,218.0,6.04,212.0,8.45,13.6,47.59359,-54.27349
2021-06-25 22:44:01+00:00,221.0,6.2,219.0,6.96,13.6,47.59359,-54.27349
2021-06-25 22:54:01+00:00,216.0,5.7,217.0,6.44,13.6,47.59359,-54.27349
2021-06-25 23:04:01+00:00,225.0,6.02,223.0,6.87,13.6,47.59359,-54.27349
2021-06-25 23:14:01+00:00,217.0,5.34,209.0,6.61,13.37,47.59359,-54.27349
2021-06-25 23:24:01+00:00,213.0,4.76,213.0,5.42,13.37,47.59359,-54.27349
2021-06-25 23:34:01+00:00,230.0,5.41,231.0,6.24,13.37,47.59359,-54.27349
2021-06-25 23:44:01+00:00,226.0,4.16,236.0,4.96,13.37,47.59359,-54.27349
2021-06-25 23:54:01+00:00,226.0,3.18,226.0,3.87,13.37,47.59359,-54.27349
